Terminal Aerodrome Forecast
Issued by NWS Wilmington, OH

Current Version | Previous Version | Text Only | Print | Product List | Glossary Off
Versions: 1 2 3 4 5 6 7 8 9 10 11 12 13 14 15 16 17 18 19 20 21 22 23

946
FTUS41 KILN 211135
TAFCVG
TAF
KCVG 211135Z 2112/2218 00000KT P6SM SCT250
     FM211500 16004KT P6SM SCT040 BKN250
     FM212300 08004KT P6SM SCT250
     FM220900 00000KT 5SM BR SCT250
     FM221400 00000KT P6SM SCT250=

USA.gov is the U.S. government's official web portal to all federal, state and local government web resources and services.